1998-067JQ

Last updated on June 10, 2016, 9:36 a.m. UTC

1 41566U 98067JQ  16162.21735750  .00030170  00000-0  43223-3 0  9996
2 41566  51.6437  92.7267 0004089 172.2312 332.6838 15.55900809  1536

Satellite is not in orbit.